307  
NZUS99 KSGF 210257  
HRRSGF  
 
HOURLY WEATHER  
NATIONAL WEATHER SERVICE SPRINGFIELD MO  
1000 PM CDT MON AUG 20 2018  
   
.....SGF CWA...
 
 
 
CITY SKY/WX TMP DP RH WIND PRES REMARKS  
SPRINGFIELD LGT RAIN 69 65 86 NW9G20 29.91R FOG  
JOPLIN CLOUDY 73 63 70 W10 29.95R  
WEST PLAINS CLEAR 68 66 93 SW6 29.91R  
ROLLA CLOUDY 68 65 90 W7 29.84R  
   
.....SURROUNDING SGF CWA...
 
 
 
CITY SKY/WX TMP DP RH WIND PRES REMARKS  
CHANUTE CLOUDY 72 63 73 W9 29.96R  
PARSONS CLEAR 69 63 81 W6 29.97R  
COFFEYVILLE CLEAR 71 63 75 W7 29.95R  
EMPORIA PTCLDY 69 61 75 NW14G23 29.98R  
HARRISON AR PTCLDY 71 64 78 W9 29.95R  
   
.....KANSAS AND MISSOURI...
 
 
 
CITY SKY/WX TMP DP RH WIND PRES REMARKS  
KANSAS CTY INT CLOUDY 68 68 100 NW12 29.87R FOG  
SEDALIA CLOUDY 69 68 96 W10G22 29.82R  
ST JOSEPH CLOUDY 69 68 96 N20G28 29.87R  
ST LOUIS HVY RAIN 71 70 96 SW9 29.80R FOG  
SPIRIT OF STL LGT RAIN 72 69 90 S3 29.78R  
WICHITA CLEAR 71 62 73 NW8 30.03R  
TOPEKA CLOUDY 69 67 93 NW13G22 29.93R  
OLATHE CLOUDY 67 66 97 NW14G24 29.88R  
   
.....TENNESSEE...
 
 
 
CITY SKY/WX TMP DP RH WIND PRES REMARKS  
MEMPHIS NOT AVBL  
NASHVILLE CLOUDY 79 72 79 S10 29.91S  
   
.....ARKANSAS....
 
 
 
CITY SKY/WX TMP DP RH WIND PRES REMARKS  
FAYETTEVILLE CLEAR 68 64 87 SW8 29.99R  
FT SMITH PTCLDY 74 64 71 W9 29.98R  
LITTLE ROCK PTCLDY 77 66 68 W12 29.93R  
   
.....OKLAHOMA....
 
 
 
CITY SKY/WX TMP DP RH WIND PRES REMARKS  
TULSA CLEAR 71 65 81 W6 29.97R  
PONCA CITY CLEAR 70 62 76 VRB3 30.01R  
MCALESTER PTCLDY 68 66 93 CALM 30.02R  
OKLAHOMA CITY PTCLDY 71 63 75 W5 30.05R  
   
.....IOWA.........
 
 
 
CITY SKY/WX TMP DP RH WIND PRES REMARKS  
DES MOINES NOT AVBL  
QUAD CITIES FAIR 72 69 90 N3 29.78R  
   
.....ILLINOIS.....
 
 
 
CITY SKY/WX TMP DP RH WIND PRES REMARKS  
QUINCY NOT AVBL  
CHICAGO CLOUDY 70 67 90 E7 29.79F  
 
 
 
CLICK HERE TO GO TO PREVIOUS BULLETINS.

The Nexlab MO Page
The Nexlab KS Page Main Text Page